"TOA5","AWS1","CR1000","7964","CR1000.Std.14","CPU:AWS1_114.CR1","64363","TBL110"
"TIMESTAMP","RECORD","Wind_spd_WVc(1)","Wind_spd_WVc(2)","Air_Temp_Avg","Humidity_Avg","SW_upper_Wm2_Avg","Rain_Tot","Press_Avg","Issui_Tot","Depth_cm","SR50A_Raw","Quality","Ground_Temp_Avg(1)","Ground_Temp_Avg(2)","SW_lower_Wm2_Avg","Albedo_Avg","SWC_per(1)","SWC_per(2)","Period(1)","Period(2)"
"TS","RN","","","","","","","","","","","","","","","","","","",""
"","","WVc","WVc","Avg","Avg","Avg","Tot","Avg","Tot","Smp","Smp","Smp","Avg","Avg","Avg","Avg","Smp","Smp","Smp","Smp"
"2018-03-26 00:00:00",333421,0.636,191.1,1.434,50.66,0,0,870.1237,0,41.31,2.759,194,0.421,0.769,0,0,55.03,63.32,34.52,36.43
"2018-03-26 00:10:00",333422,0.641,188.7,1.424,50.83,0,0,870.1342,0,41.47,2.758,185,0.421,0.77,0,0,55.03,63.32,34.52,36.43
"2018-03-26 00:20:00",333423,0.763,192.6,1.291,51.55,0,0,870.1216,0,41.37,2.761,188,0.419,0.771,0,0,55.03,63.32,34.52,36.43
"2018-03-26 00:30:00",333424,0.711,193.2,1.191,52.87,0,0,870.1194,0,41.56,2.756,193,0.422,0.771,0,0,55.03,63.32,34.52,36.43
"2018-03-26 00:40:00",333425,0.717,189.9,1.538,49.52,0,0,870.1321,0,41.53,2.757,208,0.421,0.776,0.01896065,0,54.97,63.32,34.51,36.43
"2018-03-26 00:50:00",333426,0.672,187.1,1.435,50.81,0,0,870.1194,0,41.52,2.756,189,0.421,0.776,0,0,54.8,63.26,34.46,36.42
"2018-03-26 01:00:00",333427,0.742,190,1.6,48.87,0,0,870.1194,0,41.55,2.757,186,0.421,0.779,0,0,54.8,63.26,34.46,36.42
"2018-03-26 01:10:00",333428,0.672,194.9,1.586,49.64,0,0,870.1111,0,41.63,2.754,176,0.421,0.773,0,0,54.86,63.26,34.48,36.42
"2018-03-26 01:20:00",333429,0.591,196,1.819,48.14,0,0,870.1194,0,41.76,2.754,193,0.421,0.778,0.02654491,0,54.8,63.26,34.46,36.42
"2018-03-26 01:30:00",333430,0.615,193,1.652,50.51,0,0,870.1194,0,41.32,2.758,184,0.421,0.781,0,0,54.75,63.2,34.45,36.4
"2018-03-26 01:40:00",333431,0.662,190.7,1.507,52.63,0,0,870.052,0,41.19,2.761,179,0.421,0.776,0,0,54.75,63.2,34.45,36.4
"2018-03-26 01:50:00",333432,0.832,193.2,1.35,52.67,0,0,869.8792,0,41.45,2.758,187,0.421,0.784,0,0,54.75,63.14,34.45,36.39
"2018-03-26 02:00:00",333433,0.81,191.1,1.459,55.24,0,0,869.8644,0,41.59,2.757,180,0.421,0.781,0,0,54.69,63.14,34.44,36.39
"2018-03-26 02:10:00",333434,0.7,184,1.436,54.9,0,0,869.8687,0,41.69,2.756,197,0.421,0.784,0,0,54.69,63.14,34.44,36.39
"2018-03-26 02:20:00",333435,0.704,189.4,1.53,51.38,0,0,869.8665,0,41.41,2.759,178,0.421,0.778,0,0,54.75,63.14,34.45,36.39
"2018-03-26 02:30:00",333436,0.594,190.9,1.496,50.76,0,0,869.8665,0,41.35,2.759,193,0.421,0.778,0,0,54.69,63.14,34.44,36.39
"2018-03-26 02:40:00",333437,0.698,187.8,1.489,54.23,0,0,869.8708,0,41.44,2.759,181,0.421,0.778,0,0,54.69,63.14,34.44,36.39
"2018-03-26 02:50:00",333438,0.74,189.6,1.45,57.67,0,0,869.8665,0,41.64,2.757,181,0.422,0.778,0,0,54.69,63.08,34.44,36.38
"2018-03-26 03:00:00",333439,0.794,191.5,1.243,60.35,0,0,869.856,0,41.49,2.758,188,0.421,0.786,0,0,54.63,63.08,34.42,36.38
"2018-03-26 03:10:00",333440,0.694,193.9,1.37,55.82,0,0,869.6368,0,41.47,2.758,182,0.422,0.788,0,0,54.63,63.08,34.42,36.38
"2018-03-26 03:20:00",333441,0.764,189.8,1.306,56.96,0,0,869.6136,0,41.52,2.759,184,0.421,0.784,0,0,54.63,63.02,34.42,36.36
"2018-03-26 03:30:00",333442,0.3,178.3,1.355,57.88,0,0,869.6115,0,41.98,2.751,201,0.421,0.784,0,0,54.63,63.02,34.42,36.36
"2018-03-26 03:40:00",333443,0.307,260.3,4.032,38.66,0,0,869.6115,0,41.4,2.74,176,0.421,0.778,1.956739,0,54.63,63.02,34.42,36.36
"2018-03-26 03:50:00",333444,0.167,241.4,5.302,33.43,0,0,869.6136,0,41.72,2.736,193,0.422,0.766,1.357583,0,54.58,63.02,34.41,36.36
"2018-03-26 04:00:00",333445,0.196,183.5,5.474,32.61,0,0,869.6115,0,41.02,2.745,186,0.428,0.766,0.6332858,0,54.58,63.02,34.41,36.36
"2018-03-26 04:10:00",333446,0.407,201.2,5.21,32.42,0,0,869.6136,0,41.6,2.738,188,0.451,0.772,0.0379213,0,54.58,63.02,34.41,36.36
"2018-03-26 04:20:00",333447,0.706,206.5,5.41,31.24,0,0,869.6136,0,41.77,2.738,206,0.503,0.831,0.0379213,0,54.58,63.02,34.41,36.36
"2018-03-26 04:30:00",333448,0.606,194.7,5.476,30.09,0,0,869.6136,0,41.52,2.738,188,0.491,0.852,0,0,54.52,62.96,34.4,36.35
"2018-03-26 04:40:00",333449,0.792,203.5,5.831,28.33,0,0,869.6136,0,41.01,2.74,187,0.454,0.852,0,0,54.52,62.96,34.4,36.35
"2018-03-26 04:50:00",333450,1.065,204.7,5.865,28.47,0,0,869.6136,0,41.76,2.736,207,0.422,0.851,0,0,54.52,62.96,34.4,36.35
"2018-03-26 05:00:00",333451,0.835,206.7,5.268,30.31,0,0,869.6136,0,41.31,2.74,208,0.422,0.846,0,0,54.52,62.96,34.4,36.35
"2018-03-26 05:10:00",333452,0.654,173.8,4.586,32.94,0,0,869.6136,0,41.95,2.741,200,0.422,0.847,0,0,54.52,62.96,34.4,36.35
"2018-03-26 05:20:00",333453,0.846,197.2,4.552,31.68,0,0,869.6136,0,41.26,2.741,193,0.422,0.851,0.007584261,0,54.46,62.9,34.38,36.34
"2018-03-26 05:30:00",333454,0.655,229.5,5.551,28.93,0,0,869.6136,0,40.78,2.744,189,0.422,0.844,0.05688196,0,54.46,62.9,34.38,36.34
"2018-03-26 05:40:00",333455,0.669,201.8,5.7,28.22,0,0,869.6136,0,41.46,2.736,200,0.422,0.825,0.007584261,0,54.46,62.84,34.38,36.32
"2018-03-26 05:50:00",333456,0.841,211.3,6.077,27.25,0.1337209,0,869.606,0,41.9,2.73,197,0.422,0.782,0.9101112,0.65,54.52,62.84,34.4,36.32
"2018-03-26 06:00:00",333457,0.544,250.3,6.622,25.43,3.582935,0,869.5868,0,40.93,2.737,196,0.434,0.767,2.7948,0.843,54.46,62.84,34.38,36.32
"2018-03-26 06:10:00",333458,0.326,336.1,6.956,23.61,8.365425,0,869.5566,0,41.66,2.729,195,0.491,0.767,4.64536,0.566,54.46,62.78,34.38,36.31
"2018-03-26 06:20:00",333459,0.168,31.01,6.792,23.56,13.20691,0,869.5437,0,41,2.738,194,0.516,0.772,6.325273,0.481,54.46,62.78,34.38,36.31
"2018-03-26 06:30:00",333460,0.182,74.13,6.309,24.45,28.92688,0,869.5339,0,41.24,2.734,214,0.544,0.772,13.72746,0.472,54.41,62.78,34.37,36.31
"2018-03-26 06:40:00",333461,0.332,314.7,6.972,22.73,35.89512,0,869.5248,0,40.55,2.74,170,0.565,0.798,18.92975,0.541,54.41,62.78,34.37,36.31
"2018-03-26 06:50:00",333462,0.288,40.57,6.784,23.74,41.89904,0,869.5221,0,41.31,2.73,201,0.537,0.796,22.22793,0.549,54.35,62.72,34.36,36.3
"2018-03-26 07:00:00",333463,0.145,327.1,7.072,24.5,45.18559,0,869.6456,0,40.63,2.736,193,0.483,0.842,23.9809,0.542,54.35,62.72,34.36,36.3
"2018-03-26 07:10:00",333464,0.153,63.19,7.164,26.55,46.22725,0,869.7571,0,41.49,2.731,190,0.439,0.824,30.11265,0.652,54.35,62.66,34.36,36.28
"2018-03-26 07:20:00",333465,0.099,179.1,7.05,28.74,51.53696,0,869.774,0,42.05,2.723,197,0.426,0.8,30.5776,0.598,54.35,62.66,34.36,36.28
"2018-03-26 07:30:00",333466,0.244,274.4,7.645,27.05,56.21483,0,869.7823,0,41.17,2.733,195,0.422,0.767,35.04276,0.625,54.29,62.66,34.34,36.28
"2018-03-26 07:40:00",333467,0.071,192.5,7.103,33.85,125.0653,0,869.9278,0,41.43,2.73,196,0.42,0.766,43.48858,0.454,54.29,62.66,34.34,36.28
"2018-03-26 07:50:00",333468,0.008,177.4,7.734,32.8,334.6486,0,869.991,0,41.18,2.727,190,0.419,0.765,61.87788,0.192,54.29,62.6,34.34,36.27
"2018-03-26 08:00:00",333469,0.14,353.5,8.23,29.34,297.3412,0,869.9795,0,41.26,2.726,197,0.416,0.773,81.52198,0.335,54.35,62.66,34.36,36.28
"2018-03-26 08:10:00",333470,0.54,325.9,7.598,28.22,181.9311,0,869.9606,0,41.64,2.728,206,0.428,0.806,96.6314,0.619,54.35,62.6,34.36,36.27
"2018-03-26 08:20:00",333471,0.759,322.5,7.184,30.84,302.6952,0,869.9412,0,41.58,2.729,196,0.436,0.763,101.7025,0.364,54.29,62.6,34.34,36.27
"2018-03-26 08:30:00",333472,0.221,336.3,7.319,31.87,219.8835,0,869.9359,0,41.45,2.727,201,0.432,0.747,96.77426,0.477,54.24,62.54,34.33,36.25
"2018-03-26 08:40:00",333473,0.329,312.1,7.997,30.76,173.9357,0,869.9162,0,41.36,2.728,184,0.424,0.728,95.79061,0.71,54.24,62.6,34.33,36.27
"2018-03-26 08:50:00",333474,0.523,312.6,7.445,33.29,90.24587,0,869.8792,0,41.66,2.726,195,0.364,0.709,90.42454,1.109,54.24,62.54,34.33,36.25
"2018-03-26 09:00:00",333475,0.633,350.8,7.696,34.58,84.99361,0,869.9831,0,41.43,2.727,194,0.354,0.68,83.48841,1.059,54.24,62.54,34.33,36.25
"2018-03-26 09:10:00",333476,0.324,316,7.754,35.97,71.13371,0,870.1248,0,41.27,2.729,182,0.349,0.668,74.98995,1.063,54.24,62.54,34.33,36.25
"2018-03-26 09:20:00",333477,0.427,295.2,7.776,36.78,102.1513,0,870.1432,0,41.68,2.724,187,0.36,0.704,71.38538,0.782,54.24,62.54,34.33,36.25
"2018-03-26 09:30:00",333478,0.582,358.6,8.5,36.23,150.0688,0,870.1881,0,41.74,2.72,203,0.372,0.708,73.53692,0.677,54.24,62.54,34.33,36.25
"2018-03-26 09:40:00",333479,0.314,18.77,8.96,34.77,129.9134,0,870.2227,0,41.49,2.72,178,0.364,0.715,76.4529,0.698,54.24,62.54,34.33,36.25
"2018-03-26 09:50:00",333480,0.425,33.41,9.36,32.24,153.0525,0,870.1868,0,41.38,2.719,186,0.337,0.722,80.99351,0.595,54.24,62.48,34.33,36.24
"2018-03-26 10:00:00",333481,0.331,320,9.49,31.32,227.9248,0,870.1273,0,41.13,2.722,190,0.318,0.694,89.68697,0.547,54.24,62.48,34.33,36.24
"2018-03-26 10:10:00",333482,0.365,310.8,9.51,32.87,844.661,0,869.9424,0,41.01,2.723,179,0.373,0.678,101.4422,0.121,54.18,62.48,34.32,36.24
"2018-03-26 10:20:00",333483,0.534,333.3,9.9,30.88,694.4929,0,869.934,0,41.38,2.716,192,0.372,0.674,118.9461,0.322,54.12,62.42,34.3,36.23
"2018-03-26 10:30:00",333484,0.529,317.8,10.22,31.07,96.47657,0,869.8014,0,41.36,2.715,189,0.375,0.717,140.2962,1.502,54.18,62.42,34.32,36.23
"2018-03-26 10:40:00",333485,0.443,339,10.54,30.39,86.15882,0,869.6573,0,40.62,2.722,180,0.356,0.707,174.4266,2.027,54.18,62.42,34.32,36.23
"2018-03-26 10:50:00",333486,0.578,308,10.57,32.03,215.9125,0,869.615,0,40.77,2.721,186,0.319,0.682,208.7145,1.468,54.12,62.42,34.3,36.23
"2018-03-26 11:00:00",333487,0.53,303,10.58,32.69,934.2725,0,869.5942,0,40.69,2.72,189,0.294,0.663,230.6399,0.247,54.18,62.42,34.32,36.23
"2018-03-26 11:10:00",333488,0.763,338.6,10.93,31.81,974.7214,0,869.5521,0,40.51,2.721,191,0.264,0.649,249.8012,0.256,54.12,62.42,34.3,36.23
"2018-03-26 11:20:00",333489,0.897,355.8,11.03,30.39,988.3456,0,869.3511,0,40.18,2.722,188,0.261,0.64,272.9499,0.276,54.18,62.42,34.32,36.23
"2018-03-26 11:30:00",333490,0.422,347.7,11.7,28.77,1001.15,0,869.3298,0,40.22,2.72,195,0.256,0.648,298.7021,0.298,54.12,62.36,34.3,36.21
"2018-03-26 11:40:00",333491,0.528,306.8,11.85,27.93,984.4979,0,869.2225,0,39.66,2.724,187,0.25,0.586,311.7814,0.317,54.12,62.36,34.3,36.21
"2018-03-26 11:50:00",333492,0.31,9.9,12.52,27.24,1011.539,0,869.0834,0,39.88,2.719,191,0.251,0.571,332.7829,0.329,54.07,62.36,34.29,36.21
"2018-03-26 12:00:00",333493,0.427,300.4,12.39,26.42,1012.757,0,868.9297,0,39.67,2.721,181,0.215,0.566,338.7152,0.334,54.07,62.36,34.29,36.21
"2018-03-26 12:10:00",333494,0.304,127.7,13.2,24.38,1006.639,0,868.8308,0,40.27,2.711,193,0.169,0.532,340.8707,0.339,54.07,62.36,34.29,36.21
"2018-03-26 12:20:00",333495,0.709,299.8,13.11,22.88,1005.657,0,868.6666,0,39.59,2.723,202,0.165,0.515,342.6171,0.341,54.07,62.3,34.29,36.2
"2018-03-26 12:30:00",333496,1.141,321.9,12.53,21.72,1005.677,0,868.515,0,38.12,2.737,187,0.157,0.485,345.2992,0.343,54.07,62.3,34.29,36.2
"2018-03-26 12:40:00",333497,0.838,322.3,12.56,21.09,1002.384,0,868.3255,0,39.27,2.727,187,0.159,0.464,344.5453,0.344,54.07,62.3,34.29,36.2
"2018-03-26 12:50:00",333498,0.833,332.5,12.74,19.94,989.627,0,868.2687,0,39.34,2.723,177,0.158,0.459,339.8517,0.343,54.07,62.3,34.29,36.2
"2018-03-26 13:00:00",333499,0.629,324.8,12.87,21.21,970.6699,0,868.0981,0,39.03,2.726,205,0.156,0.426,331.0288,0.341,54.07,62.3,34.29,36.2
"2018-03-26 13:10:00",333500,0.451,301.5,13.14,20.84,957.3703,0,867.9802,0,39.33,2.719,187,0.118,0.422,322.187,0.337,54.01,62.3,34.27,36.2
"2018-03-26 13:20:00",333501,0.555,281.7,13.79,19.65,937.3917,0,867.8202,0,38.76,2.727,179,0.088,0.425,310.6859,0.331,54.07,62.3,34.29,36.2
"2018-03-26 13:30:00",333502,0.784,287.7,12.96,17.14,914.8591,0,867.7907,0,37.78,2.737,205,0.106,0.421,294.279,0.322,54.01,62.24,34.27,36.19
"2018-03-26 13:40:00",333503,0.688,310.1,12.81,19.63,901.7953,0,867.6812,0,38.42,2.733,188,0.106,0.419,264.2798,0.293,54.07,62.24,34.29,36.19
"2018-03-26 13:50:00",333504,0.697,294.3,12.78,17.72,872.7487,0,867.5674,0,38.24,2.735,185,0.09,0.419,213.6536,0.245,54.12,62.24,34.3,36.19
"2018-03-26 14:00:00",333505,0.95,273.3,12.07,21.14,844.1066,0,867.437,0,39.24,2.731,189,0.101,0.419,158.7467,0.188,54.18,62.3,34.32,36.2
"2018-03-26 14:10:00",333506,0.975,304.2,12.02,20.41,644.5987,0,867.3738,0,38.31,2.737,177,0.079,0.42,101.3585,0.166,54.52,62.3,34.4,36.2
"2018-03-26 14:20:00",333507,0.653,273.7,12.11,20.57,125.1645,0,867.4686,0,38,2.739,181,0.128,0.441,62.99105,0.582,54.52,62.36,34.4,36.21
"2018-03-26 14:30:00",333508,0.795,300.5,12.35,21.37,87.58801,0,867.3675,0,37.95,2.738,196,0.155,0.487,44.31498,0.527,54.8,62.42,34.46,36.23
"2018-03-26 14:40:00",333509,0.778,259.1,12.42,22.95,72.1835,0,867.3148,0,38.11,2.737,186,0.141,0.528,36.28053,0.503,54.8,62.6,34.46,36.27
"2018-03-26 14:50:00",333510,0.653,263.8,12.36,21.94,70.1443,0,867.3148,0,37.7,2.74,202,0.137,0.534,32.03183,0.457,54.97,62.84,34.51,36.32
"2018-03-26 15:00:00",333511,0.811,277.5,12.04,22.24,67.72293,0,867.3148,0,38.09,2.74,196,0.147,0.55,28.89242,0.427,55.09,63.2,34.53,36.4
"2018-03-26 15:10:00",333512,1.191,302.6,12.14,23.31,66.84113,0,867.3422,0,37.73,2.741,187,0.196,0.585,27.91212,0.418,55.15,63.45,34.55,36.46
"2018-03-26 15:20:00",333513,0.725,296.4,12.19,23.3,64.45335,0,867.3152,0,38.35,2.736,210,0.244,0.591,26.07889,0.405,55.26,63.69,34.57,36.51
"2018-03-26 15:30:00",333514,0.489,282,12.6,24.22,66.02737,0,867.3201,0,37.15,2.747,188,0.253,0.644,25.34848,0.384,55.37,63.93,34.6,36.57
"2018-03-26 15:40:00",333515,0.516,267.9,12.41,24.75,64.29168,0,867.3162,0,37.9,2.738,193,0.258,0.688,23.79166,0.37,55.43,64.12,34.61,36.61
"2018-03-26 15:50:00",333516,0.59,232.8,12.46,26.21,62.58058,0,867.3192,0,37.42,2.745,181,0.268,0.696,22.81112,0.364,55.43,64.36,34.61,36.66
"2018-03-26 16:00:00",333517,0.667,259,12.06,27.82,58.87709,0,867.3401,0,37.74,2.743,174,0.279,0.701,21.01591,0.357,55.43,64.42,34.61,36.68
"2018-03-26 16:10:00",333518,0.591,253.4,11.9,29.67,62.81672,0,867.3737,0,37.85,2.744,186,0.293,0.708,21.74783,0.346,55.49,64.54,34.63,36.7
"2018-03-26 16:20:00",333519,0.738,264.3,11.52,31.78,75.57111,0,867.4327,0,37.76,2.747,193,0.302,0.706,25.41254,0.336,55.49,64.6,34.63,36.72
"2018-03-26 16:30:00",333520,0.488,255.7,11.02,33.93,73.89709,0,867.6514,0,37.21,2.753,186,0.324,0.691,24.68125,0.334,55.49,64.91,34.63,36.78
"2018-03-26 16:40:00",333521,0.459,252,10.91,35.37,78.99868,0,867.6684,0,37.78,2.748,181,0.332,0.674,26.40931,0.334,55.49,65.22,34.63,36.85
"2018-03-26 16:50:00",333522,0.395,250,10.82,36.76,83.86832,0,867.8422,0,37.42,2.752,189,0.346,0.67,28.21313,0.336,55.49,65.28,34.63,36.87
"2018-03-26 17:00:00",333523,0.429,242.1,10.86,36.5,69.19263,0,867.91,0,37.42,2.752,184,0.358,0.671,23.09725,0.334,55.49,65.4,34.63,36.89
"2018-03-26 17:10:00",333524,0.254,255.2,10.6,38.21,50.67707,0,867.9142,0,37.24,2.755,180,0.361,0.636,16.7763,0.331,55.49,65.46,34.63,36.91
"2018-03-26 17:20:00",333525,0.117,228.2,10.47,39.73,49.58446,0,868.1058,0,37.85,2.749,194,0.349,0.637,16.51103,0.333,55.49,65.52,34.63,36.92
"2018-03-26 17:30:00",333526,0.098,240.9,10.42,40.55,42.45885,0,868.1649,0,37.21,2.757,180,0.349,0.639,14.17288,0.333,55.49,65.65,34.63,36.95
"2018-03-26 17:40:00",333527,0.228,263,10.06,41.05,25.16953,0,868.2955,0,37.69,2.754,173,0.316,0.643,8.170251,0.324,55.49,65.65,34.63,36.95
"2018-03-26 17:50:00",333528,0.097,221,9.75,42.46,14.7307,0,868.4176,0,37.31,2.759,179,0.297,0.667,4.884718,0.334,55.43,65.65,34.61,36.95
"2018-03-26 18:00:00",333529,0.053,234,9.37,43.21,5.203695,0,868.4176,0,37.5,2.759,180,0.291,0.677,1.792453,0.341,55.49,65.65,34.63,36.95
"2018-03-26 18:10:00",333530,0.051,233.4,8.4,48.64,0.6327756,0,868.4176,0,37.34,2.768,183,0.304,0.677,0.1477921,0.08,55.49,65.65,34.63,36.95
"2018-03-26 18:20:00",333531,0.189,205.7,7.403,52.31,0,0,868.4365,0,37.67,2.766,170,0.331,0.695,0,0,55.49,65.65,34.63,36.95
"2018-03-26 18:30:00",333532,0.342,200.4,7.035,54.02,0,0,868.5439,0,37.6,2.771,190,0.332,0.715,0,0,55.49,65.65,34.63,36.95
"2018-03-26 18:40:00",333533,0.358,196.7,6.488,55.57,0,0,868.6008,0,37.46,2.773,177,0.344,0.686,0,0,55.49,65.59,34.63,36.93
"2018-03-26 18:50:00",333534,0.467,191.3,6.186,56.92,0,0,868.6703,0,37.53,2.773,171,0.326,0.656,0,0,55.43,65.52,34.61,36.92
"2018-03-26 19:00:00",333535,0.375,187.8,5.823,58.96,0,0,868.6893,0,37.53,2.777,171,0.304,0.645,0,0,55.43,65.46,34.61,36.91
"2018-03-26 19:10:00",333536,0.188,187.6,5.504,60.45,0,0,868.6724,0,37.67,2.778,185,0.317,0.635,0,0,55.43,65.4,34.61,36.89
"2018-03-26 19:20:00",333537,0.393,187.9,5.271,61.54,0,0,868.723,0,37.59,2.776,180,0.342,0.613,0,0,55.49,65.34,34.63,36.88
"2018-03-26 19:30:00",333538,0.583,188.8,5.214,61.99,0,0,868.8978,0,37.64,2.778,190,0.37,0.635,0,0,55.43,65.34,34.61,36.88
"2018-03-26 19:40:00",333539,0.264,187.6,4.975,63.41,0,0,868.923,0,37.35,2.783,180,0.404,0.662,0,0,55.43,65.28,34.61,36.87
"2018-03-26 19:50:00",333540,0.228,163.4,4.909,64.3,0,0,868.923,0,37.02,2.783,178,0.412,0.676,0.2388211,0,55.43,65.22,34.61,36.85
"2018-03-26 20:00:00",333541,0.529,183.5,4.955,63.56,0,0,868.923,0,37.83,2.775,185,0.399,0.68,0.1592148,0,55.43,65.16,34.61,36.84
"2018-03-26 20:10:00",333542,0.546,190,5.231,62.13,0,0,868.9508,0,37.39,2.78,175,0.396,0.68,0.1213066,0,55.43,65.09,34.61,36.82
"2018-03-26 20:20:00",333543,0.482,188.3,5.06,62.11,0,0,869.1385,0,37.57,2.778,189,0.399,0.679,0,0,55.37,65.03,34.6,36.81
"2018-03-26 20:30:00",333544,0.32,195.6,5.355,60.09,0,0,869.2225,0,37.45,2.78,176,0.397,0.682,0.01137251,0,55.37,64.97,34.6,36.8
"2018-03-26 20:40:00",333545,0.573,189.9,4.809,63.36,0,0,869.2554,0,37.48,2.781,185,0.365,0.684,0,0,55.37,64.85,34.6,36.77
"2018-03-26 20:50:00",333546,0.539,188.3,4.436,64.83,0,0,869.2608,0,37.69,2.782,179,0.349,0.698,0,0,55.37,64.66,34.6,36.73
"2018-03-26 21:00:00",333547,0.509,189.7,4.505,62.77,0,0,869.2639,0,37.63,2.78,180,0.336,0.706,0,0,55.37,64.6,34.6,36.72
"2018-03-26 21:10:00",333548,0.519,191.8,4.701,61.77,0,0,869.2672,0,37.61,2.781,187,0.333,0.719,0,0,55.37,64.54,34.6,36.7
"2018-03-26 21:20:00",333549,0.603,191.1,4.45,63.12,0,0,869.2679,0,37.56,2.782,187,0.335,0.72,0,0,55.37,64.48,34.6,36.69
"2018-03-26 21:30:00",333550,0.537,185.8,4.314,64.04,0,0,869.2682,0,37.56,2.782,179,0.333,0.722,0,0,55.37,64.48,34.6,36.69
"2018-03-26 21:40:00",333551,0.596,188.1,4.254,63.73,0,0,869.2682,0,37.59,2.783,176,0.333,0.724,0,0,55.32,64.42,34.59,36.68
"2018-03-26 21:50:00",333552,0.618,192.9,4.284,63.31,0,0,869.2703,0,37.53,2.784,190,0.337,0.738,0,0,55.32,64.42,34.59,36.68
"2018-03-26 22:00:00",333553,0.692,186.6,3.95,64.33,0,0,869.304,0,37.39,2.786,180,0.34,0.746,0,0,55.32,64.42,34.59,36.68
"2018-03-26 22:10:00",333554,0.682,188.1,3.789,65.03,0,0,869.2703,0,37.74,2.784,187,0.339,0.761,0,0,55.32,64.42,34.59,36.68
"2018-03-26 22:20:00",333555,0.501,186.7,3.812,63.76,0,0,869.2597,0,37.61,2.784,181,0.351,0.77,0,0,55.32,64.36,34.59,36.66
"2018-03-26 22:30:00",333556,0.773,187.2,3.946,62.28,0,0,869.2218,0,37.59,2.784,173,0.368,0.775,0,0,55.32,64.3,34.59,36.65
"2018-03-26 22:40:00",333557,0.551,182.3,3.96,62.63,0,0,869.2682,0,37.66,2.783,183,0.376,0.782,0,0,55.32,64.3,34.59,36.65
"2018-03-26 22:50:00",333558,0.815,187.1,3.933,62.98,0,0,869.2682,0,37.68,2.784,180,0.403,0.801,0,0,55.26,64.3,34.57,36.65
"2018-03-26 23:00:00",333559,0.563,196.4,4.292,59.69,0,0,869.1291,0,37.33,2.783,180,0.425,0.822,0.04550038,0,55.26,64.24,34.57,36.63
"2018-03-26 23:10:00",333560,0.646,188.8,4.07,60.62,0,0,869.0723,0,37.91,2.78,176,0.44,0.837,0,0,55.26,64.3,34.57,36.65
"2018-03-26 23:20:00",333561,0.491,178.3,4.185,60.39,0,0,869.0273,0,37.67,2.783,187,0.445,0.847,0,0,55.26,64.24,34.57,36.63
"2018-03-26 23:30:00",333562,0.561,187.1,3.995,60.32,0,0,869.0168,0,37.54,2.786,175,0.454,0.85,0,0,55.26,64.24,34.57,36.63
"2018-03-26 23:40:00",333563,0.576,190.7,3.751,58.9,0,0,869.0157,0,37.7,2.784,187,0.463,0.852,0,0,55.26,64.24,34.57,36.63
"2018-03-26 23:50:00",333564,0.339,187.9,3.708,57.67,0,0,869.0209,0,37.53,2.784,184,0.471,0.852,0.00758426,0,55.2,64.24,34.56,36.63
